TimePDT,TemperatureF,Dew PointF,Humidity,Sea Level PressureIn,VisibilityMPH,Wind Direction,Wind SpeedMPH,Gust SpeedMPH,PrecipitationIn,Events,Conditions,WindDirDegrees,DateUTC
12:54 AM,50.0,46.9,89,30.43,10.0,North,3.5,-,N/A,,Overcast,350,2013-03-11 07:54:00
1:54 AM,50.0,46.9,89,30.43,10.0,WNW,3.5,-,N/A,,Overcast,300,2013-03-11 08:54:00
2:54 AM,50.0,46.9,89,30.43,10.0,Calm,Calm,-,N/A,,Overcast,0,2013-03-11 09:54:00
3:54 AM,50.0,46.9,89,30.41,10.0,Calm,Calm,-,N/A,,Overcast,0,2013-03-11 10:54:00
4:18 AM,48.2,46.4,93,30.40,10.0,Calm,Calm,-,N/A,,Overcast,0,2013-03-11 11:18:00
4:40 AM,48.2,46.4,93,30.40,10.0,Calm,Calm,-,N/A,,Overcast,0,2013-03-11 11:40:00
4:54 AM,48.9,46.9,93,30.40,10.0,Calm,Calm,-,N/A,,Overcast,0,2013-03-11 11:54:00
5:54 AM,48.9,46.9,93,30.40,10.0,NE,3.5,-,N/A,,Overcast,40,2013-03-11 12:54:00
6:54 AM,48.9,46.9,93,30.40,10.0,Calm,Calm,-,N/A,,Overcast,0,2013-03-11 13:54:00
7:20 AM,48.2,46.4,93,30.39,10.0,Calm,Calm,-,N/A,,Overcast,0,2013-03-11 14:20:00
7:54 AM,48.9,46.9,93,30.39,10.0,Calm,Calm,-,N/A,,Overcast,0,2013-03-11 14:54:00
8:26 AM,48.2,46.4,93,30.39,10.0,Calm,Calm,-,N/A,,Overcast,0,2013-03-11 15:26:00
8:54 AM,50.0,46.9,89,30.39,10.0,Calm,Calm,-,N/A,,Overcast,0,2013-03-11 15:54:00
9:54 AM,50.0,46.9,89,30.40,10.0,WNW,3.5,-,N/A,,Overcast,290,2013-03-11 16:54:00
10:54 AM,52.0,48.0,86,30.39,10.0,Calm,Calm,-,N/A,,Overcast,0,2013-03-11 17:54:00
11:21 AM,53.6,48.2,82,30.39,10.0,Calm,Calm,-,N/A,,Overcast,0,2013-03-11 18:21:00
11:54 AM,54.0,48.0,80,30.38,10.0,Calm,Calm,-,N/A,,Mostly Cloudy,0,2013-03-11 18:54:00
12:14 PM,55.4,48.2,77,30.37,10.0,Calm,Calm,-,N/A,,Mostly Cloudy,0,2013-03-11 19:14:00
12:54 PM,57.0,48.0,72,30.36,10.0,Calm,Calm,-,N/A,,Mostly Cloudy,0,2013-03-11 19:54:00
1:54 PM,59.0,48.9,69,30.34,10.0,ESE,3.5,-,N/A,,Overcast,110,2013-03-11 20:54:00
2:54 PM,62.1,48.9,62,30.31,10.0,Variable,3.5,-,N/A,,Overcast,0,2013-03-11 21:54:00
3:54 PM,64.0,48.9,58,30.30,10.0,NNE,3.5,-,N/A,,Mostly Cloudy,20,2013-03-11 22:54:00
4:54 PM,61.0,51.1,70,30.29,10.0,North,6.9,-,N/A,,Mostly Cloudy,360,2013-03-11 23:54:00
5:54 PM,61.0,51.1,70,30.27,10.0,North,6.9,-,N/A,,Mostly Cloudy,10,2013-03-12 00:54:00
6:54 PM,57.0,51.1,81,30.27,10.0,NNE,4.6,-,N/A,,Mostly Cloudy,20,2013-03-12 01:54:00
7:54 PM,55.9,51.1,84,30.27,10.0,North,5.8,-,N/A,,Mostly Cloudy,10,2013-03-12 02:54:00
8:54 PM,53.1,50.0,89,30.27,10.0,North,5.8,-,N/A,,Mostly Cloudy,350,2013-03-12 03:54:00
9:54 PM,50.0,46.9,89,30.28,10.0,North,8.1,-,N/A,,Scattered Clouds,350,2013-03-12 04:54:00
10:54 PM,48.2,46.4,93,30.27,10.0,NE,5.8,-,N/A,,Scattered Clouds,40,2013-03-12 05:54:00
11:54 PM,46.9,45.0,93,30.27,10.0,Calm,Calm,-,N/A,,Clear,0,2013-03-12 06:54:00